La Crosse, VA

3:58 AM EDT on July 24, 2016 (GMT -0400)
Mecklenburg-Brunswick Regional

Weather History for KAVC - February, 2013

Change the Weather History Date:

Monday, February 18, 2013

  Actual Average (KEMV) Record (KEMV)
Temperature  
Mean Temperature - -  
Max Temperature - 54 °F 73 °F (2008)
Min Temperature - 31 °F 14 °F (2015)
Moisture  
Dew Point -    
Average Humidity    
Maximum Humidity    
Minimum Humidity    
Precipitation  
Precipitation 0.00 in - - ()
Sea Level Pressure  
Sea Level Pressure 30.36 in    
Wind  
Wind Speed 3 mph (SSW)    
Max Wind Speed 12 mph    
Max Gust Speed -    
Visibility 10 miles    
Events      
Averages and records for this station are not official NWS values.
T = Trace of Precipitation, MM = Missing Value Source: NWS Daily Summary

Daily Weather History Graph

Daily Weather History Graph

Search for Another Location

Airport or City:

Trip Planner

Search our weather history database for the weather conditions in past years. The results will help you decide how hot, cold, wet, or windy it might be!

Date:

Astronomy

Feb. 18, 2013 Rise Set
Actual Time 6:56 AM EST 5:56 PM EST
Civil Twilight 6:30 AM EST 6:22 PM EST
Nautical Twilight 6:00 AM EST 6:52 PM EST
Astronomical Twilight 5:30 AM EST 7:22 PM EST
Moon 11:45 AM EST (2/18) 1:30 AM EST (2/18)
Length of Visible Light 11h 52m
Length of Day
10h 59m
First Quarter, 58% of the Moon is Illuminated
Feb 18
First Quarter
Feb 25
Full
Mar 4
Last Quarter
Mar 11
New
Mar 19
First Quarter

Hourly Weather History & Observations

Time (EST) Temp. Dew Point Humidity Pressure Visibility Wind Dir Wind Speed Gust Speed Precip Events Conditions
12:15 AM - - N/A% 30.31 in 10.0 mi Calm Calm - N/A   Clear
12:35 AM - - N/A% 30.33 in 10.0 mi Calm Calm - N/A   Clear
12:55 AM - - N/A% 30.34 in 10.0 mi Calm Calm - N/A   Clear
1:15 AM - - N/A% 30.34 in 10.0 mi Calm Calm - N/A   Clear
1:35 AM - - N/A% 30.35 in 10.0 mi Calm Calm - N/A   Clear
1:55 AM - - N/A% 30.34 in 10.0 mi Calm Calm - N/A   Clear
2:55 AM - - N/A% 30.35 in 10.0 mi Calm Calm - N/A   Clear
3:35 AM - - N/A% 30.35 in 10.0 mi Calm Calm - N/A   Clear
3:55 AM - - N/A% 30.36 in 10.0 mi NNW 3.5 mph - N/A   Clear
4:15 AM - - N/A% 30.36 in 10.0 mi Calm Calm - N/A   Clear
4:35 AM - - N/A% 30.36 in 10.0 mi North 3.5 mph - N/A   Clear
4:55 AM - - N/A% 30.36 in 10.0 mi Calm Calm - N/A   Clear
5:15 AM - - N/A% 30.37 in 10.0 mi Calm Calm - N/A   Clear
5:35 AM - - N/A% 30.38 in 10.0 mi Calm Calm - N/A   Clear
5:55 AM - - N/A% 30.39 in 10.0 mi Calm Calm - N/A   Clear
6:15 AM - - N/A% 30.39 in 10.0 mi Calm Calm - N/A   Clear
6:35 AM - - N/A% 30.40 in 10.0 mi Calm Calm - N/A   Clear
6:55 AM - - N/A% 30.41 in 10.0 mi Calm Calm - N/A   Clear
7:15 AM - - N/A% 30.41 in 10.0 mi SW 3.5 mph - N/A   Clear
7:35 AM - - N/A% 30.41 in 10.0 mi Calm Calm - N/A   Clear
7:55 AM - - N/A% 30.42 in 10.0 mi Calm Calm - N/A   Clear
8:15 AM - - N/A% 30.43 in 10.0 mi Calm Calm - N/A   Clear
8:35 AM - - N/A% 30.44 in 10.0 mi Calm Calm - N/A   Clear
8:55 AM - - N/A% 30.45 in 10.0 mi West 5.8 mph - N/A   Clear
9:15 AM - - N/A% 30.45 in 10.0 mi Calm Calm - N/A   Clear
9:35 AM - - N/A% 30.45 in 10.0 mi West 3.5 mph - N/A   Clear
9:55 AM - - N/A% 30.44 in 10.0 mi WNW 3.5 mph - N/A   Clear
10:15 AM - - N/A% 30.44 in 10.0 mi WNW 4.6 mph - N/A   Clear
10:35 AM - - N/A% 30.44 in 10.0 mi WSW 4.6 mph - N/A   Clear
10:55 AM - - N/A% 30.44 in 10.0 mi West 5.8 mph - N/A   Clear
11:15 AM - - N/A% 30.43 in 10.0 mi WSW 5.8 mph - N/A   Clear
11:35 AM - - N/A% 30.43 in 10.0 mi West 3.5 mph - N/A   Clear
11:55 AM - - N/A% 30.42 in 10.0 mi WSW 6.9 mph - N/A   Clear
12:15 PM - - N/A% 30.41 in 10.0 mi SSW 3.5 mph - N/A   Clear
12:35 PM - - N/A% 30.40 in 10.0 mi WSW 4.6 mph - N/A   Clear
12:55 PM - - N/A% 30.39 in 10.0 mi WSW 4.6 mph - N/A   Clear
1:15 PM - - N/A% 30.38 in 10.0 mi SW 5.8 mph - N/A   Clear
1:35 PM - - N/A% 30.37 in 10.0 mi SSW 6.9 mph - N/A   Clear
1:55 PM - - N/A% 30.36 in 10.0 mi SSW 8.1 mph - N/A   Clear
2:15 PM - - N/A% 30.35 in 10.0 mi South 4.6 mph - N/A   Clear
2:35 PM - - N/A% 30.34 in 10.0 mi SSE 4.6 mph - N/A   Clear
2:55 PM - - N/A% 30.33 in 10.0 mi SSW 4.6 mph - N/A   Clear
3:15 PM - - N/A% 30.33 in 10.0 mi South 4.6 mph - N/A   Clear
3:35 PM - - N/A% 30.33 in 10.0 mi SSW 8.1 mph - N/A   Clear
3:55 PM - - N/A% 30.33 in 10.0 mi SSW 8.1 mph - N/A   Clear
4:15 PM - - N/A% 30.33 in 10.0 mi SSW 10.4 mph - N/A   Clear
4:35 PM - - N/A% 30.32 in 10.0 mi SSW 11.5 mph - N/A   Clear
4:55 PM - - N/A% 30.32 in 10.0 mi South 10.4 mph - N/A   Clear
5:15 PM - - N/A% 30.33 in 10.0 mi South 9.2 mph - N/A   Clear
5:35 PM - - N/A% 30.33 in 10.0 mi South 6.9 mph - N/A   Clear
5:55 PM - - N/A% 30.33 in 10.0 mi South 5.8 mph - N/A   Clear
6:15 PM - - N/A% 30.33 in 10.0 mi South 5.8 mph - N/A   Clear
6:35 PM - - N/A% 30.33 in 10.0 mi South 4.6 mph - N/A   Clear
6:55 PM - - N/A% 30.34 in 10.0 mi South 5.8 mph - N/A   Clear
7:15 PM - - N/A% 30.33 in 10.0 mi South 6.9 mph - N/A   Clear
7:35 PM - - N/A% 30.33 in 10.0 mi South 8.1 mph - N/A   Clear
7:55 PM - - N/A% 30.33 in 10.0 mi South 8.1 mph - N/A   Clear
8:15 PM - - N/A% 30.32 in 10.0 mi South 6.9 mph - N/A   Clear
8:35 PM - - N/A% 30.32 in 10.0 mi South 6.9 mph - N/A   Clear
8:55 PM - - N/A% 30.32 in 10.0 mi South 6.9 mph - N/A   Clear
9:15 PM - - N/A% 30.32 in 10.0 mi South 8.1 mph - N/A   Clear
9:35 PM - - N/A% 30.31 in 10.0 mi South 5.8 mph - N/A   Clear
9:55 PM - - N/A% 30.31 in 10.0 mi South 6.9 mph - N/A   Clear
10:15 PM - - N/A% 30.30 in 10.0 mi South 6.9 mph - N/A   Clear
10:35 PM - - N/A% 30.30 in 10.0 mi South 9.2 mph - N/A   Clear
10:55 PM - - N/A% 30.30 in 10.0 mi South 8.1 mph - N/A   Clear
11:15 PM - - N/A% 30.30 in 10.0 mi South 4.6 mph - N/A   Clear
11:35 PM - - N/A% 30.30 in 10.0 mi South 4.6 mph - N/A   Clear
11:55 PM - - N/A% 30.30 in 10.0 mi South 5.8 mph - N/A   Clear